Location: Ku?niki
(51.4449°N, 17.8974°E)
Time: 11:01:51
(UTC+00:00)

USA 229 - Pass Details

Date: 18 September 2020
Orbit: 973 x 1239 km, 63.4° (Epoch: 14 October)

Event Time Altitude Azimuth Distance (km) Brightness Sun altitude
Rises 22:28:13 0° 311° (NW) 3,895 7.2 -37.1°
Reaches altitude 10° 22:30:53 10° 316° (NW) 2,975 6.5 -37.1°
Enters shadow 22:37:28 57° 21° (NNE) 1,347 4.3 -37.1°
